This demonstration page uses our WeatherBlox Daily Observations layout. Learn more.

Left ArrowRight Arrow

41.86663, -103.66717

Hourly Observations for February 15, 2019

Temp ( °F °C ) Dew Point ( °F °C ) Humidity (%) Winds ( mph kmh ) Pressure ( in mb ) Visibility ( mi km ) Precip ( " mm )
12:53 am 00:53 Cloudy 25 -3.9 15 -9.4 66 66 ESE 17 28 29.87 1011 10 16 N/A
1:53 am 01:53 Cloudy 25 -3.9 14 -10 63 63 ESE 17 28 29.83 1010 10 16 N/A
2:53 am 02:53 Cloudy with Light Snow 23 -5 18 -7.8 81 81 SE 15 24 29.80 1009 3 5 N/A
3:04 am 03:04 Cloudy with Light Snow 22 -5.6 19 -7.2 89 89 SE 16 26 29.93 1014 3 4 N/A
3:12 am 03:12 Cloudy with Light Snow 21 -6 19 -7 93 93 SE 13 20 29.95 1014 2 3 N/A
3:32 am 03:32 Mostly Cloudy with Light Snow 21 -6.1 20 -6.7 96 96 SE 15 24 29.95 1014 1 1 0.02 0.51
3:48 am 03:48 Mostly Cloudy with Snow 21 -6 19 -7 93 93 SE 14 22 29.95 1014 1 1 0.04 1.02
3:53 am 03:53 Mostly Cloudy with Snow 21 -6.1 20 -6.7 96 96 SE 10 17 29.84 1010 1 1 0.06 1.52
4:01 am 04:01 Mostly Cloudy with Light Snow 20 -6.7 20 -6.7 100 100 ESE 12 19 29.97 1015 1 2 0.01 0.25
4:16 am 04:16 Cloudy with Light Snow 20 -6.7 19 -7.2 96 96 ESE 16 26 29.94 1014 1 2 0.01 0.25
4:53 am 04:53 Cloudy with Light Snow 19 -7.2 18 -7.8 96 96 SE 16 26 29.85 1011 1 2 0.02 0.51
5:15 am 05:15 Mostly Cloudy with Light Snow 19 -7.2 17 -8.3 92 92 ESE 21 33 29.95 1014 1 1 0.01 0.25
5:38 am 05:38 Cloudy with Light Snow 18 -7.8 17 -8.3 96 96 ESE 18 30 29.97 1015 1 2 0.02 0.51
5:46 am 05:46 Windy with Snow Likely 18 -8 18 -8 100 100 ESE 21 33 29.96 1015 2 3 N/A
5:53 am 05:53 Windy with Snow Likely 18 -7.8 17 -8.3 96 96 ESE 22 35 29.83 1010 2 3 0.03 0.76
6:06 am 06:06 Windy with Snow Likely 18 -8 16 -9 93 93 SE 21 33 29.96 1015 5 8 N/A
6:53 am 06:53 Cloudy 17 -8.3 15 -9.4 92 92 ESE 22 35 29.83 1010 8 13 N/A
7:53 am 07:53 Cloudy with Mist and Fog 16 -8.9 15 -9.4 96 96 ESE 23 37 29.84 1010 5 8 N/A
8:04 am 08:04 Cloudy with Mist and Fog 17 -8.3 15 -9.4 92 92 ESE 22 35 29.97 1015 4 6 N/A
8:53 am 08:53 Cloudy 19 -7.2 16 -8.9 88 88 SE 16 26 29.85 1011 10 16 N/A
9:44 am 09:44 Partly Cloudy 21 -6 16 -9 80 80 SE 20 31 29.93 1013 10 16 N/A
9:53 am 09:53 Partly Cloudy 22 -5.6 16 -8.9 78 78 SSE 24 39 29.83 1010 10 16 N/A
10:53 am 10:53 Sunny 24 -4.4 18 -7.8 77 77 SE 18 30 29.82 1010 10 16 N/A
11:53 am 11:53 Sunny 27 -2.8 19 -7.2 72 72 SE 21 33 29.82 1010 10 16 N/A
12:53 pm 12:53 Sunny 29 -1.7 22 -5.6 75 75 ESE 22 35 29.80 1009 10 16 N/A
1:53 pm 13:53 Sunny 30 -1.1 24 -4.4 79 79 ESE 20 31 29.79 1009 10 16 N/A
2:53 pm 14:53 Sunny 30 -1.1 24 -4.4 79 79 E 18 30 29.80 1009 10 16 N/A
3:53 pm 15:53 Sunny 30 -1.1 23 -5 75 75 E 17 28 29.82 1010 10 16 N/A
4:53 pm 16:53 Sunny 27 -2.8 21 -6.1 78 78 ESE 18 30 29.85 1011 10 16 N/A
5:53 pm 17:53 Clear 22 -5.6 18 -7.8 85 85 E 15 24 29.89 1012 10 16 N/A
6:53 pm 18:53 Clear 20 -6.7 17 -8.3 89 89 ESE 16 26 29.91 1013 10 16 N/A
7:53 pm 19:53 Clear 17 -8.3 15 -9.4 92 92 ESE 17 28 29.93 1014 10 16 N/A
8:53 pm 20:53 Clear 14 -10 13 -10.6 95 95 ESE 18 30 29.93 1013 10 16 N/A
9:53 pm 21:53 Clear 13 -10.6 11 -11.7 92 92 ESE 20 31 29.91 1013 10 16 N/A
10:53 pm 22:53 Mostly Clear 12 -11.1 11 -11.7 95 95 ESE 16 26 29.89 1012 10 16 N/A
11:53 pm 23:53 Clear 11 -11.7 10 -12.2 96 96 ESE 16 26 29.86 1011 10 16 N/A

Powered by AerisWeather